Volver al catálogo

FENGYUN 1C DEB

ActivoSSO
NORAD 30810·DEBRIS·🇨🇳 China

Lanzado May 10, 1999 desde Taiyuan Satellite Launch Center

Loading…

Próximos Pases (próximas 24 horas)

TLE

ActualizadoSource: Space-Track

Época: Sep 14, 2026, 03:58 UTC

1 30810U 99025AUU 26257.16558015  .00003736  00000-0  19428-2 0  9995
2 30810  98.6787  62.5824 0172830 357.7940   2.2449 14.07854055982540

Sigue FENGYUN 1C DEB en tiempo real con AllMySat

Download on the App Store